Weather in Gusev

Russia / Kaliningrad Oblast     54˚35′30″N   22˚12′04″E
temp.,
°C
wind,
m/s
gust,
m/s
humid.,
%
clouds,
%
prec.,
mm/h
press.,
hPa
HPBL,
m
17 january, sun
sun1723:00−19˚ne369841 0.0 1019111
02:00−20˚e239351 0.0 102029
05:00−20˚ne238923 0.0 102031
08:00−21˚ne229211 0.0 102120
11:00−18˚nne12911 0.0 102287
14:00−16˚nnw128826 0.0 1022179
17:00−20˚nnw11973 0.0 102220
20:00−21˚nw11972 0.0 102320
18 january, mon
mon1823:00−21˚ssw11960 0.0 102320
02:00−20˚sw22890 0.0 102320
05:00−20˚ssw22870 0.0 102220
08:00−20˚ssw23830 0.0 102320
11:00−16˚ssw24840 0.0 1022105
14:00−12˚ssw23863 0.0 1022169
17:00−16˚ssw238747 0.0 102121
20:00−16˚s348869 0.0 102169
19 january, tue
tue1923:00−16˚s368993 0.0 1020103
02:00−15˚s479096 0.0 1019139
05:00−14˚s5988100 0.0 1017194
08:00−13˚sse6118796 0.0 1016233
11:00−10˚sse6129297 0.1 1014277
14:00−8˚s6109297 0.5 1013295
17:00−7˚sse599398 0.3 1012251
20:00−7˚sse6119397 0.6 1012227
20 january, wed
wed2023:00−6˚sse6109392 0.1 1012203
02:00−4˚sse5109395 0.1 1012229
05:00−4˚sse5129298 0.0 1010298
08:00−4˚sse7149199 0.0 1009373
11:00−3˚s81591100 0.0 1008458
14:00−1˚sse81493100 0.7 1007347
17:00+1˚s71399100 2.3 1006381
20:00+1˚ssw613100100 3.8 1006388
21 january, thu
thu2123:00+1˚ssw51098100 0.4 1006344
02:00+1˚ssw5109799 0.4 1006308
05:00+1˚ssw51195100 0.7 1006287
08:00+1˚s5108997 0.7 1005260
11:00+1˚s6118589 0.0 1005245
14:00+1˚s5109384 0.0 1005271
17:00s61290100 0.0 1003261
20:00s6129079 0.0 1002267